DW1653 Weather Reports


Display with metric or nautical units.
time (UTC)temp
F
wind
direction
speed
MPH
gust
MPH
rain 1hr
in
rain 24hr
in
rain mn
in
humidity
%
barometer
mb
20260507093330 51 329 4.0 11.0 0.00 0.09 0.09 87 1010.0
20260507092821 51 328 4.0 11.0 0.00 0.09 0.09 87 1009.8
20260507092333 51 329 7.0 11.0 0.00 0.09 0.09 87 1010.0
20260507091843 51 321 3.0 10.0 0.00 0.09 0.09 87 1010.0
20260507091314 51 332 5.0 10.0 0.00 0.09 0.09 87 1009.9
20260507090827 52 331 5.0 9.0 0.01 0.09 0.09 87 1010.0
20260507090323 52 337 4.0 7.0 0.01 0.09 0.09 87 1009.9
20260507085834 52 347 3.0 7.0 0.01 0.09 0.09 88 1010.0
20260507085348 52 355 5.0 11.0 0.01 0.09 0.09 87 1009.9
20260507084819 52 320 5.0 11.0 0.01 0.09 0.09 88 1009.8
20260507084353 52 308 2.0 11.0 0.01 0.09 0.09 88 1009.7
20260507083844 52 340 6.0 13.0 0.01 0.09 0.09 88 1009.9
20260507083334 52 11 5.0 13.0 0.01 0.09 0.09 88 1009.8
20260507082825 52 317 3.0 11.0 0.01 0.09 0.09 88 1009.7
20260507082316 52 270 5.0 11.0 0.01 0.09 0.09 88 1009.7
20260507081828 52 332 3.0 13.0 0.01 0.09 0.09 88 1009.7
20260507081323 53 312 7.0 13.0 0.01 0.09 0.09 88 1009.6
20260507080815 53 295 3.0 10.0 0.01 0.08 0.08 88 1009.6
20260507080326 53 334 4.0 10.0 0.01 0.08 0.08 87 1009.2
20260507075817 53 271 4.0 9.0 0.01 0.08 0.08 87 1010.2
20260507075329 53 337 4.0 11.0 0.03 0.08 0.08 87 1009.7
20260507074821 53 271 5.0 9.0 0.04 0.08 0.08 87 1009.6
20260507074332 53 333 2.0 10.0 0.06 0.08 0.08 87 1009.9
20260507073823 53 339 3.0 10.0 0.07 0.08 0.08 87 1009.6
20260507073336 53 302 5.0 10.0 0.07 0.08 0.08 86 1009.4
20260507072830 53 319 5.0 13.0 0.07 0.08 0.08 86 1009.5
20260507072324 53 332 8.0 13.0 0.07 0.08 0.08 86 1009.4
20260507071815 54 298 5.0 18.0 0.07 0.08 0.08 87 1009.3
20260507071328 55 349 7.0 14.0 0.08 0.08 0.08 87 1009.5
20260507070818 56 12 6.0 12.0 0.07 0.07 0.07 87 1009.2
20260507070330 56 10 3.0 10.0 0.07 0.07 0.07 87 1009.5
20260507065822 57 355 2.0 10.0 0.07 0.07 0.07 86 1009.5
20260507065333 57 5 3.0 9.0 0.05 0.05 0.05 86 1008.9
20260507064829 58 302 3.0 5.0 0.04 0.04 0.04 86 1009.5
20260507064319 58 298 2.0 7.0 0.02 0.02 0.02 85 1009.2
20260507063834 58 328 2.0 7.0 0.01 0.01 0.01 85 1008.9
20260507063325 58 283 3.0 7.0 0.01 0.01 0.01 85 1008.8
20260507062816 58 288 4.0 8.0 0.01 0.01 0.01 84 1008.7
20260507062331 59 350 3.0 8.0 0.01 0.01 0.01 83 1008.5
20260507061823 59 274 2.0 6.0 0.01 0.01 0.01 83 1009.1
20260507061334 60 314 2.0 7.0 0.00 0.00 0.00 83 1009.4
20260507060830 60 319 3.0 8.0 0.00 0.00 0.00 82 1009.1
20260507060341 60 331 4.0 7.0 0.00 0.00 0.00 82 1009.0
20260507055855 60 291 2.0 5.0 0.00 0.00 0.00 81 1008.7
20260507055325 61 355 2.0 8.0 0.00 0.00 0.00 81 1008.5
20260507054817 61 297 1.0 9.0 0.00 0.00 0.00 81 1008.5
20260507054329 61 290 3.0 9.0 0.00 0.00 0.00 81 1008.5
20260507053819 61 288 2.0 8.0 0.00 0.00 0.00 80 1008.8
20260507053352 61 331 3.0 8.0 0.00 0.00 0.00 80 1008.7
20260507052822 62 302 1.0 4.0 0.00 0.00 0.00 79 1008.6
20260507052333 62 350 1.0 6.0 0.00 0.00 0.00 79 1008.5
20260507051829 62 340 4.0 6.0 0.00 0.00 0.00 79 1008.4
20260507051320 62 347 3.0 8.0 0.00 0.00 0.00 79 1008.3
20260507050832 62 301 3.0 13.0 0.00 0.00 0.00 78 1008.6
20260507050323 63 320 7.0 13.0 0.00 0.00 0.00 78 1008.6
20260507045815 63 326 3.0 18.0 0.00 0.00 0.00 78 1008.6
20260507045326 64 328 9.0 18.0 0.00 0.00 0.00 80 1008.7
20260507044816 65 11 7.0 10.0 0.00 0.00 0.00 82 1008.7
20260507044328 66 348 3.0 8.0 0.00 0.00 0.00 82 1008.4
20260507043824 66 319 4.0 11.0 0.00 0.00 0.00 82 1008.4
20260507043315 66 278 2.0 5.0 0.00 0.00 0.00 81 1008.4
20260507042828 66 306 1.0 6.0 0.00 0.00 0.00 81 1008.3
20260507042319 66 285 2.0 6.0 0.00 0.00 0.00 81 1008.3
20260507041813 66 294 3.0 8.0 0.00 0.00 0.00 81 1008.3
20260507041328 66 284 4.0 8.0 0.00 0.00 0.00 82 1008.4
20260507040840 66 272 5.0 10.0 0.00 0.00 0.00 82 1008.6
20260507040329 66 255 5.0 9.0 0.00 0.00 0.00 82 1008.6
20260507035820 66 271 3.0 8.0 0.00 0.00 0.00 82 1008.4
20260507035334 66 282 4.0 8.0 0.00 0.00 0.00 82 1008.4
20260507034826 66 254 5.0 8.0 0.00 0.00 0.00 82 1008.1
20260507034317 66 210 4.0 9.0 0.00 0.00 0.00 82 1008.2
20260507033320 66 246 3.0 7.0 0.00 0.00 0.00 82 1008.2
20260507032832 66 219 3.0 7.0 0.00 0.00 0.00 82 1008.0
20260507032324 66 248 2.0 7.0 0.00 0.00 0.00 83 1008.0
20260507031815 66 236 3.0 5.0 0.00 0.00 0.00 83 1008.3
20260507031331 66 221 1.0 5.0 0.00 0.00 0.00 83 1008.1
20260507030822 66 226 3.0 6.0 0.00 0.00 0.00 83 1008.3
20260507030354 65 304 3.0 6.0 0.00 0.00 0.00 84 1008.4
20260507025824 65 227 1.0 6.0 0.00 0.00 0.00 84 1008.3
20260507025316 65 246 2.0 3.0 0.00 0.00 0.00 84 1008.5
20260507024848 65 261 2.0 3.0 0.00 0.00 0.00 84 1008.4
20260507024318 65 209 2.0 4.0 0.00 0.00 0.00 84 1008.5
20260507023829 65 219 2.0 9.0 0.00 0.00 0.00 84 1008.4
20260507023321 65 215 2.0 9.0 0.00 0.00 0.00 85 1008.3
20260507022817 65 240 2.0 6.0 0.00 0.00 0.00 85 1008.3
20260507022349 65 208 2.0 6.0 0.00 0.00 0.00 85 1008.5
20260507021822 65 196 2.0 5.0 0.00 0.00 0.00 85 1008.6
20260507021333 65 228 1.0 2.0 0.00 0.00 0.00 85 1009.0
20260507020825 65 225 1.0 4.0 0.00 0.00 0.00 85 1009.0
20260507020316 65 220 2.0 5.0 0.00 0.00 0.00 85 1008.9
20260507015832 64 223 1.0 7.0 0.00 0.00 0.00 85 1008.9
20260507015323 65 223 4.0 7.0 0.00 0.00 0.00 85 1009.0
20260507014833 64 190 2.0 5.0 0.00 0.00 0.00 85 1008.9
20260507014329 65 232 1.0 4.0 0.00 0.00 0.00 85 1009.0
20260507013824 65 206 2.0 5.0 0.00 0.00 0.00 85 1008.9
20260507013315 65 201 2.0 5.0 0.00 0.00 0.00 85 1008.8
20260507012825 65 214 2.0 4.0 0.00 0.00 0.00 84 1008.8
20260507012317 65 197 2.0 6.0 0.00 0.00 0.00 84 1008.9
20260507011848 65 225 2.0 6.0 0.00 0.00 0.00 84 1008.9
20260507011319 65 184 2.0 5.0 0.00 0.00 0.00 84 1008.8
20260507010831 65 182 3.0 5.0 0.00 0.00 0.00 84 1008.7
20260507010342 65 201 2.0 6.0 0.00 0.00 0.00 84 1008.5
20260507005815 65 193 3.0 5.0 0.00 0.00 0.00 83 1008.4
20260507005330 65 190 2.0 6.0 0.00 0.00 0.00 83 1008.4
20260507004821 65 165 2.0 6.0 0.00 0.00 0.00 83 1008.4
20260507004316 65 194 2.0 4.0 0.00 0.00 0.00 83 1008.5
20260507003831 65 217 2.0 4.0 0.00 0.00 0.00 83 1008.5
20260507003322 65 178 2.0 5.0 0.00 0.00 0.00 83 1008.5
20260507002833 65 171 1.0 3.0 0.00 0.00 0.00 82 1008.4
20260507002325 65 198 1.0 4.0 0.00 0.00 0.00 82 1008.3
20260507001836 66 182 2.0 4.0 0.00 0.00 0.00 82 1008.3
20260507001326 66 180 1.0 6.0 0.00 0.00 0.00 81 1008.3
20260507000822 66 181 3.0 8.0 0.00 0.00 0.00 81 1008.3
20260507000335 66 194 3.0 8.0 0.00 0.00 0.00 81 1008.2
20260506235825 66 174 3.0 7.0 0.00 0.00 0.00 80 1008.3
20260506235316 66 204 4.0 9.0 0.00 0.00 0.00 80 1008.2
20260506234828 66 188 4.0 9.0 0.00 0.00 0.00 80 1008.1
20260506234320 67 177 4.0 7.0 0.00 0.00 0.00 79 1008.0
20260506233832 67 202 2.0 7.0 0.00 0.00 0.00 79 1008.1
20260506233324 67 194 1.0 8.0 0.00 0.00 0.00 79 1008.1
20260506232818 67 141 2.0 8.0 0.00 0.00 0.00 78 1008.0
20260506232331 67 160 2.0 6.0 0.00 0.00 0.00 77 1007.9
20260506231822 67 154 2.0 6.0 0.00 0.00 0.00 76 1007.9
20260506231353 68 201 3.0 6.0 0.00 0.00 0.00 75 1008.0
20260506230823 68 190 2.0 7.0 0.00 0.00 0.00 73 1008.1
20260506230318 69 189 3.0 7.0 0.00 0.00 0.00 72 1008.0
20260506225832 70 205 2.0 11.0 0.00 0.00 0.00 71 1008.0
20260506225323 70 259 2.0 11.0 0.00 0.00 0.00 72 1007.8
20260506224819 70 300 2.0 10.0 0.00 0.00 0.00 72 1007.8
20260506224350 70 298 5.0 8.0 0.00 0.00 0.00 72 1007.8
20260506223820 70 257 2.0 11.0 0.00 0.00 0.00 73 1007.8
20260506223352 69 242 7.0 14.0 0.00 0.00 0.00 73 1007.9
20260506222821 69 242 3.0 10.0 0.00 0.00 0.00 73 1007.9
20260506222332 69 280 5.0 10.0 0.00 0.00 0.00 73 1007.9
20260506221843 69 209 3.0 11.0 0.00 0.00 0.00 74 1007.9
20260506221333 69 182 5.0 11.0 0.00 0.00 0.00 74 1007.8
20260506220824 68 279 7.0 13.0 0.00 0.00 0.00 76 1007.9
20260506220316 68 213 4.0 13.0 0.00 0.00 0.00 77 1007.8
20260506215830 67 239 6.0 13.0 0.00 0.00 0.00 79 1007.8
20260506215326 66 205 4.0 12.0 0.00 0.00 0.00 80 1007.6
20260506214816 64 255 3.0 8.0 0.00 0.00 0.00 79 1007.7
20260506214349 64 137 2.0 5.0 0.00 0.00 0.00 78 1007.6
20260506213818 64 165 1.0 4.0 0.00 0.00 0.00 78 1007.6
20260506213353 64 150 2.0 6.0 0.00 0.00 0.00 77 1007.7
20260506212824 64 178 3.0 6.0 0.00 0.00 0.00 76 1007.7
20260506212318 65 167 3.0 6.0 0.00 0.00 0.00 74 1007.5
20260506211829 66 132 4.0 10.0 0.00 0.00 0.00 71 1007.5
20260506211321 69 179 2.0 10.0 0.00 0.00 0.00 73 1007.4
20260506210816 69 293 4.0 12.0 0.00 0.00 0.00 74 1007.4
20260506210348 69 202 4.0 13.0 0.00 0.00 0.00 74 1007.4
20260506205819 69 264 6.0 13.0 0.00 0.00 0.00 75 1007.3
20260506205330 69 205 4.0 11.0 0.00 0.00 0.00 75 1007.4
20260506204824 69 211 4.0 13.0 0.00 0.00 0.00 75 1007.4
20260506204316 68 205 6.0 13.0 0.00 0.00 0.00 75 1007.4
20260506203828 68 225 7.0 15.0 0.00 0.00 0.00 75 1007.3
20260506203339 68 220 5.0 15.0 0.00 0.00 0.00 75 1007.3
20260506202829 68 294 4.0 12.0 0.00 0.00 0.00 76 1007.4
20260506202325 68 217 6.0 15.0 0.00 0.00 0.00 76 1007.4
20260506201855 68 225 4.0 15.0 0.00 0.00 0.00 76 1007.4
20260506201325 68 221 5.0 12.0 0.00 0.00 0.00 76 1007.6
20260506200816 68 280 5.0 15.0 0.00 0.00 0.00 76 1007.6
20260506200328 68 178 7.0 15.0 0.00 0.00 0.00 77 1007.7
20260506195820 67 232 6.0 17.0 0.00 0.00 0.00 77 1007.6
20260506195351 67 289 6.0 16.0 0.00 0.00 0.00 77 1007.8
20260506194820 67 259 5.0 16.0 0.00 0.00 0.00 78 1007.7
20260506194315 67 252 8.0 16.0 0.00 0.00 0.00 79 1007.8
20260506193827 66 304 4.0 10.0 0.00 0.00 0.00 80 1007.9
20260506193323 66 169 3.0 13.0 0.00 0.00 0.00 80 1008.0
20260506192833 66 193 4.0 15.0 0.00 0.00 0.00 81 1008.0
20260506192346 65 265 5.0 15.0 0.00 0.00 0.00 82 1008.1
20260506191815 65 196 5.0 12.0 0.00 0.00 0.00 82 1008.1
20260506191326 65 238 4.0 14.0 0.00 0.00 0.00 82 1008.1
20260506190837 65 204 6.0 14.0 0.00 0.00 0.00 81 1008.1
20260506190326 65 178 6.0 15.0 0.00 0.00 0.00 81 1008.3
20260506185818 65 208 5.0 14.0 0.00 0.00 0.00 81 1008.2
20260506185329 65 192 6.0 14.0 0.00 0.00 0.00 82 1008.1
20260506184825 64 210 6.0 12.0 0.00 0.00 0.00 83 1008.1
20260506184317 63 169 6.0 13.0 0.00 0.00 0.00 84 1008.1
20260506183848 63 179 5.0 13.0 0.00 0.00 0.00 83 1008.2
20260506183319 63 159 5.0 16.0 0.00 0.00 0.00 83 1008.3
20260506182830 62 236 4.0 16.0 0.00 0.00 0.00 83 1008.3
20260506182321 62 196 6.0 12.0 0.00 0.00 0.00 83 1008.4
20260506181852 62 155 5.0 12.0 0.00 0.00 0.00 83 1008.4
20260506181322 61 152 6.0 13.0 0.00 0.00 0.00 83 1008.5
20260506180834 61 183 6.0 13.0 0.00 0.00 0.00 83 1008.6
20260506180324 62 196 5.0 12.0 0.00 0.00 0.00 83 1008.6
20260506175820 62 154 5.0 13.0 0.00 0.00 0.00 84 1008.8
20260506175331 62 172 5.0 11.0 0.00 0.00 0.00 85 1008.8
20260506174822 62 157 5.0 12.0 0.00 0.00 0.00 85 1008.9
20260506174314 62 114 5.0 13.0 0.00 0.00 0.00 85 1008.9
20260506173846 62 197 5.0 13.0 0.00 0.00 0.00 85 1008.9
20260506173315 62 171 3.0 13.0 0.00 0.00 0.00 85 1009.1
20260506172827 62 178 5.0 18.0 0.00 0.00 0.00 85 1009.0
20260506172317 62 138 4.0 11.0 0.00 0.00 0.00 84 1009.1
20260506171830 62 173 5.0 12.0 0.00 0.00 0.00 84 1009.2
20260506171326 62 167 5.0 12.0 0.00 0.00 0.00 83 1009.3
20260506170818 63 188 5.0 13.0 0.00 0.00 0.00 83 1009.2
20260506170330 63 186 6.0 15.0 0.00 0.00 0.00 83 1009.2
20260506165821 63 186 7.0 15.0 0.00 0.00 0.00 84 1009.4
20260506165352 63 173 7.0 15.0 0.00 0.00 0.00 85 1009.5
20260506164823 63 198 6.0 17.0 0.00 0.00 0.00 85 1009.8
20260506164354 63 150 6.0 17.0 0.00 0.00 0.00 84 1010.0
20260506163845 62 169 9.0 17.0 0.00 0.00 0.00 84 1010.2
20260506163315 63 182 6.0 19.0 0.00 0.00 0.00 84 1010.2
20260506162829 63 161 7.0 19.0 0.00 0.00 0.00 83 1010.3
20260506162324 63 161 9.0 16.0 0.00 0.00 0.00 82 1010.3
20260506161816 63 216 5.0 17.0 0.00 0.00 0.00 82 1010.3
20260506161327 63 209 8.0 17.0 0.00 0.00 0.00 82 1010.3
20260506160819 63 220 5.0 14.0 0.00 0.00 0.00 81 1010.3
20260506155833 63 204 7.0 15.0 0.00 0.00 0.00 80 1010.2
20260506155325 63 155 7.0 15.0 0.00 0.00 0.00 79 1010.2
20260506154818 64 161 7.0 16.0 0.00 0.00 0.00 79 1010.4
20260506154330 64 111 7.0 16.0 0.00 0.00 0.00 79 1010.5
20260506153822 64 202 6.0 14.0 0.00 0.00 0.00 79 1010.3
20260506153320 64 221 7.0 21.0 0.00 0.00 0.00 80 1010.3
20260506152852 64 184 6.0 21.0 0.00 0.00 0.00 80 1010.3
20260506152322 64 183 8.0 18.0 0.00 0.00 0.00 80 1010.3
20260506151814 64 190 7.0 17.0 0.00 0.00 0.00 80 1010.4
20260506151325 64 169 7.0 17.0 0.00 0.00 0.00 80 1010.5
20260506150836 64 199 8.0 18.0 0.00 0.00 0.00 79 1010.5
20260506150349 65 182 8.0 21.0 0.00 0.00 0.00 79 1010.5
20260506145820 65 142 7.0 22.0 0.00 0.00 0.00 78 1010.4
20260506145331 65 179 9.0 22.0 0.00 0.00 0.00 78 1010.5
20260506144825 66 184 9.0 22.0 0.00 0.00 0.00 78 1010.3
20260506144321 66 235 7.0 22.0 0.00 0.00 0.00 78 1010.4
20260506143832 65 181 8.0 17.0 0.00 0.00 0.00 79 1010.4
20260506143323 65 196 6.0 17.0 0.00 0.00 0.00 78 1010.4
20260506142816 64 160 6.0 11.0 0.00 0.00 0.00 77 1010.5
20260506142326 64 139 5.0 11.0 0.00 0.00 0.00 76 1010.5
20260506141838 65 168 5.0 13.0 0.00 0.00 0.00 75 1010.4
20260506141348 66 147 7.0 13.0 0.00 0.00 0.00 73 1010.4
20260506140839 67 209 5.0 10.0 0.00 0.00 0.00 72 1010.4
20260506140330 68 142 5.0 14.0 0.00 0.00 0.00 72 1010.4
20260506135824 68 163 5.0 14.0 0.00 0.00 0.00 72 1010.4
20260506135336 68 121 3.0 12.0 0.00 0.00 0.00 73 1010.5
20260506134846 68 186 6.0 12.0 0.00 0.00 0.00 73 1010.5
20260506134320 68 199 6.0 16.0 0.00 0.00 0.00 73 1010.7
20260506133832 68 199 7.0 17.0 0.00 0.00 0.00 73 1010.6
20260506133323 68 165 8.0 17.0 0.00 0.00 0.00 74 1010.6
20260506132855 68 136 6.0 15.0 0.00 0.00 0.00 75 1010.6
20260506132344 67 205 6.0 17.0 0.00 0.00 0.00 76 1011.0
20260506131815 67 223 5.0 15.0 0.00 0.00 0.00 76 1011.0
20260506131325 67 209 6.0 15.0 0.00 0.00 0.00 76 1011.0
20260506130817 66 178 5.0 12.0 0.00 0.00 0.00 77 1010.9
20260506130329 66 199 5.0 12.0 0.00 0.00 0.00 78 1010.9
20260506125824 65 157 4.0 12.0 0.00 0.00 0.00 79 1011.0
20260506125316 65 165 5.0 12.0 0.00 0.00 0.00 79 1010.9
20260506124828 64 69 4.0 14.0 0.00 0.00 0.00 80 1010.8
20260506124319 64 219 5.0 14.0 0.00 0.00 0.00 79 1010.7
20260506123851 64 207 5.0 13.0 0.00 0.00 0.00 79 1010.8
20260506123322 64 219 5.0 10.0 0.00 0.00 0.00 79 1010.8
20260506122834 65 178 5.0 12.0 0.00 0.00 0.00 79 1010.8
20260506122326 64 227 6.0 13.0 0.00 0.00 0.00 79 1011.0
20260506121821 64 221 5.0 13.0 0.00 0.00 0.00 79 1010.9
20260506121316 64 184 4.0 10.0 0.00 0.00 0.00 79 1010.9
20260506120831 64 200 4.0 11.0 0.00 0.00 0.00 79 1010.9
20260506120322 64 211 5.0 12.0 0.00 0.00 0.00 79 1011.0
20260506115833 64 173 3.0 14.0 0.00 0.00 0.00 79 1010.9
20260506115325 64 155 6.0 12.0 0.00 0.00 0.00 79 1010.9
20260506114836 64 175 5.0 12.0 0.00 0.00 0.00 80 1011.0
20260506114326 63 205 4.0 11.0 0.00 0.00 0.00 79 1011.1
20260506113838 63 155 5.0 12.0 0.00 0.00 0.00 80 1011.2
20260506113328 63 191 3.0 12.0 0.00 0.00 0.00 81 1011.2
20260506112822 62 187 5.0 13.0 0.00 0.00 0.00 82 1011.1
20260506112354 62 172 4.0 13.0 0.00 0.00 0.00 83 1011.2
20260506111824 62 150 5.0 14.0 0.00 0.00 0.00 84 1011.1
20260506111338 61 192 5.0 14.0 0.00 0.00 0.00 85 1011.1
20260506110829 61 228 3.0 11.0 0.00 0.00 0.00 86 1011.1
20260506110324 60 277 6.0 13.0 0.00 0.00 0.00 86 1011.1
20260506105819 60 179 4.0 10.0 0.00 0.00 0.00 87 1011.0
20260506105330 60 182 4.0 12.0 0.00 0.00 0.00 87 1011.0
20260506104825 60 188 4.0 12.0 0.00 0.00 0.00 87 1011.0
20260506104321 60 145 4.0 11.0 0.00 0.00 0.00 87 1011.0
20260506103831 60 201 4.0 10.0 0.00 0.00 0.00 87 1011.1
20260506103323 60 188 3.0 13.0 0.00 0.00 0.00 87 1011.1
20260506102834 60 182 5.0 13.0 0.00 0.00 0.00 87 1011.1
20260506102346 60 221 5.0 13.0 0.00 0.00 0.00 87 1010.9
20260506101815 60 155 5.0 11.0 0.00 0.00 0.00 86 1010.9
20260506101327 60 267 6.0 14.0 0.00 0.00 0.00 86 1010.9
20260506100818 60 222 5.0 14.0 0.00 0.00 0.00 86 1010.8
20260506100330 60 228 5.0 14.0 0.00 0.00 0.00 86 1010.9
20260506095826 60 198 6.0 11.0 0.00 0.00 0.00 86 1010.8
20260506095317 60 230 5.0 9.0 0.00 0.00 0.00 86 1010.8
20260506094832 60 227 4.0 9.0 0.00 0.00 0.00 86 1010.9
20260506094320 60 159 3.0 11.0 0.00 0.00 0.00 86 1010.9
20260506093833 60 219 4.0 11.0 0.00 0.00 0.00 86 1010.8